Location: Norton
(51.3000°N, 0.8167°E)
Time: 02:48:34
(UTC+00:00)

Cosmos 1898 Rocket - Pass Details

Date: 03 March 2021
Orbit: 753 x 784 km, 74.0° (Epoch: 13 April)

Event Time Altitude Azimuth Distance (km) Brightness Sun altitude
Rises 19:50:36 0° 338° (NNW) 3,227 7.3 -20.8°
Reaches altitude 10° 19:53:11 10° 348° (NNW) 2,302 6.3 -21.2°
Enters shadow 19:57:55 34° 53° (NE) 1,248 4.3 -21.9°
